User: anonymous   Login
Location: Ostrava
(49.8330°N, 18.2830°E)
Time: 17:10:55
(UTC+01:00)
Language:

Vanguard 2 Rocket - Orbit

View from above orbital plane
View from above orbital plane
View from above satellite
View from above satellite

Ground track
Ground track

The orbit data is extracted from the following two-line orbital elements,

1 00012U 59001B   15027.18686956  .00000096  00000-0  45273-4 0    50
2 00012 032.9065 034.9442 1670741 171.5305 191.7582 11.43503923297084
Epoch (UTC): 27 January 2015 04:29:05
Eccentricity: 0.1670741
inclination: 32.9065°
perigee height: 554 km
apogee height: 3334 km
right ascension of ascending node: 34.9442°
argument of perigee: 171.5305°
revolutions per day: 11.43503923
mean anomaly at epoch: 191.7582°
orbit number at epoch: 29708

The dashed part of the orbit path shows where the satellite is in the earth's shadow,  

DLR